Orbital Elements at Epoch 2459200.5 (2020-Dec-17.0) TDB
Reference: JPL 19 (heliocentric ecliptic J2000)
Element | Value | Uncertainty (1-sigma) | Units |
e | .2112743394690793 | 3.8742e-08 | |
a | 2.16273154452459 | 5.9128e-09 | au |
q | 1.705801866006216 | 8.5452e-08 | au |
i | 2.073602755327505 | 4.1782e-06 | deg |
node | 22.80307544196102 | 9.7103e-05 | deg |
peri | 355.833234722233 | 9.7582e-05 | deg |
M | 345.8518373058029 | 9.1353e-06 | deg |
tp | 2459246.156213813872 (2021-Jan-31.65621381) | 2.9561e-05 | TDB |
period | 1161.72236128832 3.18 | 4.7641e-06 1.304e-08 | d yr |
n | .3098847125579724 | 1.2708e-09 | deg/d |
Q | 2.619661223042965 | 7.162e-09 | au |
|
| | Orbit Determination Parameters
Additional Information
|